カタログに戻る

STARLINK-34042

運用中通信VLEO
NORAD 63838·PAYLOAD·🇺🇸 United States

打ち上げ May 7, 2025 から Cape Canaveral Space Force Station

Loading…

次のパス (今後24時間)

TLE

最新Source: CelesTrak SupGP

元期: Sep 15, 2026, 02:50 UTC

1 63838C 25093C   26258.11854167 -.00000002  00000+0 -87688-7 0  2588
2 63838  43.0017  84.2708 0001441 280.3183 207.6512 15.27538880    10

AllMySatでSTARLINK-34042をリアルタイム追跡

Download on the App Store